Regional Weather Roundup
Issued by NWS

Home | Current Version | Previous Version | Text Only | Print | Product List | Glossary On
Versions: 1 2 3 4 5 6 7 8 9 10 11 12 13 14 15 16 17 18 19 20 21 22 23 24 25 26 27
000
ASUS45 KBOI 052310
RWRID

IDAHO REGIONAL WEATHER ROUNDUP
NATIONAL WEATHER SERVICE BOISE ID
500 PM MDT THU MAY 05 2016

NOTE: "FAIR" INDICATES FEW OR NO CLOUDS BELOW 12000 FEET
WITH NO SIGNIFICANT WEATHER AND/OR OBSTRUCTIONS TO VISIBILITY

IDZ012-014-060000-
SOUTHWEST IDAHO


CITY           SKY/WX    TMP DP  RH WIND       PRES   REMARKS
BOISE          CLOUDY    76  45  33 NW8       29.71F
CALDWELL       CLOUDY    75  48  38 NW3       29.71F
MOUNTAIN HOME  PTSUNNY   78  43  28 S8        29.71F
$$

IDZ016-017-060000-
SOUTHCENTRAL IDAHO


CITY           SKY/WX    TMP DP  RH WIND       PRES   REMARKS
BURLEY         CLOUDY    77  35  21 S10G23    29.78F
JEROME         CLOUDY    80  39  23 E17G25    29.77F
TWIN FALLS     CLOUDY    78  31  17 SE22G31   29.76F
$$

IDZ019>023-060000-
SOUTHEAST IDAHO


CITY           SKY/WX    TMP DP  RH WIND       PRES   REMARKS
IDAHO FALLS    CLOUDY    80  32  17 SW8       29.87F
POCATELLO      CLOUDY    80  33  18 S16       29.84F
REXBURG        CLOUDY    79  26  14 SW10      29.88F
$$

IDZ006-010-011-018-031-032-060000-
CENTRAL IDAHO MOUNTAINS


CITY           SKY/WX    TMP DP  RH WIND       PRES   REMARKS
MCCALL         CLOUDY    71  40  32 W7        29.83F
HAILEY         PTSUNNY   72  37  28 SE23G35   29.88F
STANLEY          N/A     69  23  17 S12G21    29.93S
SALMON         CLOUDY    81  34  18 NE5       29.75F
CHALLIS        CLOUDY    76  20  12 S14G33    29.84S
$$

IDZ002-004-006-007-026-060000-
NORTHERN IDAHO


CITY           SKY/WX    TMP DP  RH WIND       PRES   REMARKS
LEWISTON       PTSUNNY   75  52  44 NW10      29.84S
LOWELL           N/A     79  53  40 VRB5      29.76F
COEUR D`ALENE  MOSUNNY   73  50  43 CALM      29.85F
MULLAN PASS    PTSUNNY   61  41  47 VRB5      29.99S
$$




USA.gov is the U.S. government's official web portal to all federal, state and local government web resources and services.